owner,sensor,date,latitude,longitude,vertical_datum,mass_concentration_of_oxygen_in_sea_water,qcFlag 
SCCF RECON,ioos:station:SCCF:13:1,2009-11-01T00:00:00Z,26.5255,-82.0032,2.48,5.96,1111122 
SCCF RECON,ioos:station:SCCF:13:1,2009-11-01T01:00:00Z,26.5255,-82.0032,2.585,5.59,1111122 
SCCF RECON,ioos:station:SCCF:13:1,2009-11-01T02:00:00Z,26.5255,-82.0032,2.67,5.49,1111122 
SCCF RECON,ioos:station:SCCF:13:1,2009-11-01T03:00:00Z,26.5255,-82.0032,2.723,5.67,1111122 
SCCF RECON,ioos:station:SCCF:13:1,2009-11-01T04:00:00Z,26.5255,-82.0032,2.77,5.82,1111122 
SCCF RECON,ioos:station:SCCF:13:1,2009-11-01T05:00:00Z,26.5255,-82.0032,2.79,5.72,1111122 
SCCF RECON,ioos:station:SCCF:13:1,2009-11-01T06:00:00Z,26.5255,-82.0032,2.73,5.55,1111122 
SCCF RECON,ioos:station:SCCF:13:1,2009-11-01T07:00:00Z,26.5255,-82.0032,2.59,5.48,1111122 
SCCF RECON,ioos:station:SCCF:13:1,2009-11-01T08:00:00Z,26.5255,-82.0032,2.49,5.19,1111122 
SCCF RECON,ioos:station:SCCF:13:1,2009-11-01T09:00:00Z,26.5255,-82.0032,2.4,5.31,1111122 
SCCF RECON,ioos:station:SCCF:13:1,2009-11-01T10:00:00Z,26.5255,-82.0032,2.302,5.17,1111122 
SCCF RECON,ioos:station:SCCF:13:1,2009-11-01T11:00:00Z,26.5255,-82.0032,2.221,5.21,1111122 
SCCF RECON,ioos:station:SCCF:13:1,2009-11-01T12:00:00Z,26.5255,-82.0032,2.191,5.09,1111122 
SCCF RECON,ioos:station:SCCF:13:1,2009-11-01T13:00:00Z,26.5255,-82.0032,2.27,5.12,1111122 
SCCF RECON,ioos:station:SCCF:13:1,2009-11-01T14:00:00Z,26.5255,-82.0032,2.41,5.2,1111122 
SCCF RECON,ioos:station:SCCF:13:1,2009-11-01T15:00:00Z,26.5255,-82.0032,2.51,4.93,1111122 
SCCF RECON,ioos:station:SCCF:13:1,2009-11-01T16:00:00Z,26.5255,-82.0032,2.588,5.09,1111122 
SCCF RECON,ioos:station:SCCF:13:1,2009-11-01T17:00:00Z,26.5255,-82.0032,2.633,4.98,1111122 
SCCF RECON,ioos:station:SCCF:13:1,2009-11-01T18:00:00Z,26.5255,-82.0032,2.645,5.38,1111122 
SCCF RECON,ioos:station:SCCF:13:1,2009-11-01T19:00:00Z,26.5255,-82.0032,2.621,5.69,1111122 
SCCF RECON,ioos:station:SCCF:13:1,2009-11-01T20:00:00Z,26.5255,-82.0032,2.541,5.57,1111122 
SCCF RECON,ioos:station:SCCF:13:1,2009-11-01T21:00:00Z,26.5255,-82.0032,2.475,5.7,1111122 
SCCF RECON,ioos:station:SCCF:13:1,2009-11-01T22:00:00Z,26.5255,-82.0032,2.45,5.64,1111122 
SCCF RECON,ioos:station:SCCF:13:1,2009-11-01T23:00:00Z,26.5255,-82.0032,2.427,5.47,1111122 
SCCF RECON,ioos:station:SCCF:13:1,2009-11-02T00:00:00Z,26.5255,-82.0032,2.432,5.44,1111122 
SCCF RECON,ioos:station:SCCF:13:1,2009-11-02T01:00:00Z,26.5255,-82.0032,2.509,5.49,1111122 
SCCF RECON,ioos:station:SCCF:13:1,2009-11-02T02:00:00Z,26.5255,-82.0032,2.618,4.82,1111122 
SCCF RECON,ioos:station:SCCF:13:1,2009-11-02T03:00:00Z,26.5255,-82.0032,2.69,5.02,1111122 
SCCF RECON,ioos:station:SCCF:13:1,2009-11-02T04:00:00Z,26.5255,-82.0032,2.75,5.47,1111122 
SCCF RECON,ioos:station:SCCF:13:1,2009-11-02T05:00:00Z,26.5255,-82.0032,2.79,5.46,1111122 
SCCF RECON,ioos:station:SCCF:13:1,2009-11-02T06:00:00Z,26.5255,-82.0032,2.77,5.32,1111122 
SCCF RECON,ioos:station:SCCF:13:1,2009-11-02T07:00:00Z,26.5255,-82.0032,2.648,5.19,1111122 
SCCF RECON,ioos:station:SCCF:13:1,2009-11-02T08:00:00Z,26.5255,-82.0032,2.514,5.01,1111122 
SCCF RECON,ioos:station:SCCF:13:1,2009-11-02T09:00:00Z,26.5255,-82.0032,2.42,4.83,1111122 
SCCF RECON,ioos:station:SCCF:13:1,2009-11-02T10:00:00Z,26.5255,-82.0032,2.325,4.98,1111122 
SCCF RECON,ioos:station:SCCF:13:1,2009-11-02T11:00:00Z,26.5255,-82.0032,2.24,4.98,1111122 
SCCF RECON,ioos:station:SCCF:13:1,2009-11-02T12:00:00Z,26.5255,-82.0032,2.18,5.13,1111122 
SCCF RECON,ioos:station:SCCF:13:1,2009-11-02T13:00:00Z,26.5255,-82.0032,2.18,5.1,1111122 
SCCF RECON,ioos:station:SCCF:13:1,2009-11-02T14:00:00Z,26.5255,-82.0032,2.32,5.18,1111122 
SCCF RECON,ioos:station:SCCF:13:1,2009-11-02T15:00:00Z,26.5255,-82.0032,2.44,5.03,1111122 
SCCF RECON,ioos:station:SCCF:13:1,2009-11-02T16:00:00Z,26.5255,-82.0032,2.52,4.8,1111122 
SCCF RECON,ioos:station:SCCF:13:1,2009-11-02T17:00:00Z,26.5255,-82.0032,2.599,5.0,1111122 
SCCF RECON,ioos:station:SCCF:13:1,2009-11-02T18:00:00Z,26.5255,-82.0032,2.64,5.06,1111122 
SCCF RECON,ioos:station:SCCF:13:1,2009-11-02T19:00:00Z,26.5255,-82.0032,2.63,5.43,1111122 
SCCF RECON,ioos:station:SCCF:13:1,2009-11-02T20:00:00Z,26.5255,-82.0032,2.59,5.53,1111122 
SCCF RECON,ioos:station:SCCF:13:1,2009-11-02T21:00:00Z,26.5255,-82.0032,2.53,5.42,1111122 
SCCF RECON,ioos:station:SCCF:13:1,2009-11-02T22:00:00Z,26.5255,-82.0032,2.496,5.33,1111122 
SCCF RECON,ioos:station:SCCF:13:1,2009-11-02T23:00:00Z,26.5255,-82.0032,2.47,5.33,1111122 
SCCF RECON,ioos:station:SCCF:13:1,2009-11-03T00:00:00Z,26.5255,-82.0032,2.47,5.26,1111122 
SCCF RECON,ioos:station:SCCF:13:1,2009-11-03T01:00:00Z,26.5255,-82.0032,2.52,5.35,1111122 
SCCF RECON,ioos:station:SCCF:13:1,2009-11-03T02:00:00Z,26.5255,-82.0032,2.61,4.85,1111122 
SCCF RECON,ioos:station:SCCF:13:1,2009-11-03T03:00:00Z,26.5255,-82.0032,2.7,4.85,1111122 
SCCF RECON,ioos:station:SCCF:13:1,2009-11-03T04:00:00Z,26.5255,-82.0032,2.761,5.3,1111122 
SCCF RECON,ioos:station:SCCF:13:1,2009-11-03T05:00:00Z,26.5255,-82.0032,2.8,5.26,1111122 
SCCF RECON,ioos:station:SCCF:13:1,2009-11-03T06:00:00Z,26.5255,-82.0032,2.805,5.11,1111122 
SCCF RECON,ioos:station:SCCF:13:1,2009-11-03T07:00:00Z,26.5255,-82.0032,2.735,4.95,1111122 
SCCF RECON,ioos:station:SCCF:13:1,2009-11-03T08:00:00Z,26.5255,-82.0032,2.61,4.85,1111122 
SCCF RECON,ioos:station:SCCF:13:1,2009-11-03T09:00:00Z,26.5255,-82.0032,2.49,4.69,1111122 
SCCF RECON,ioos:station:SCCF:13:1,2009-11-03T10:00:00Z,26.5255,-82.0032,2.397,4.91,1111122 
SCCF RECON,ioos:station:SCCF:13:1,2009-11-03T11:00:00Z,26.5255,-82.0032,2.3,4.94,1111122 
SCCF RECON,ioos:station:SCCF:13:1,2009-11-03T12:00:00Z,26.5255,-82.0032,2.21,5.1,1111122 
SCCF RECON,ioos:station:SCCF:13:1,2009-11-03T13:00:00Z,26.5255,-82.0032,2.15,5.05,1111122 
SCCF RECON,ioos:station:SCCF:13:1,2009-11-03T14:00:00Z,26.5255,-82.0032,2.172,5.16,1111122 
SCCF RECON,ioos:station:SCCF:13:1,2009-11-03T15:00:00Z,26.5255,-82.0032,2.32,5.27,1111122 
SCCF RECON,ioos:station:SCCF:13:1,2009-11-03T16:00:00Z,26.5255,-82.0032,2.427,5.18,1111122 
SCCF RECON,ioos:station:SCCF:13:1,2009-11-03T17:00:00Z,26.5255,-82.0032,2.485,5.06,1111122 
SCCF RECON,ioos:station:SCCF:13:1,2009-11-03T18:00:00Z,26.5255,-82.0032,2.549,5.16,1111122 
SCCF RECON,ioos:station:SCCF:13:1,2009-11-03T19:00:00Z,26.5255,-82.0032,2.586,4.97,1111122 
SCCF RECON,ioos:station:SCCF:13:1,2009-11-03T20:00:00Z,26.5255,-82.0032,2.574,5.26,1111122 
SCCF RECON,ioos:station:SCCF:13:1,2009-11-03T21:00:00Z,26.5255,-82.0032,2.53,5.36,1111122 
SCCF RECON,ioos:station:SCCF:13:1,2009-11-03T22:00:00Z,26.5255,-82.0032,2.48,5.31,1111122 
SCCF RECON,ioos:station:SCCF:13:1,2009-11-03T23:00:00Z,26.5255,-82.0032,2.45,5.08,1111122 
SCCF RECON,ioos:station:SCCF:13:1,2009-11-04T00:00:00Z,26.5255,-82.0032,2.42,4.96,1111122 
SCCF RECON,ioos:station:SCCF:13:1,2009-11-04T01:00:00Z,26.5255,-82.0032,2.44,5.13,1111122 
SCCF RECON,ioos:station:SCCF:13:1,2009-11-04T02:00:00Z,26.5255,-82.0032,2.539,5.35,1111122 
SCCF RECON,ioos:station:SCCF:13:1,2009-11-04T03:00:00Z,26.5255,-82.0032,2.639,4.55,1111122 
SCCF RECON,ioos:station:SCCF:13:1,2009-11-04T04:00:00Z,26.5255,-82.0032,2.69,4.98,1111122 
SCCF RECON,ioos:station:SCCF:13:1,2009-11-04T05:00:00Z,26.5255,-82.0032,2.72,5.04,1111122 
SCCF RECON,ioos:station:SCCF:13:1,2009-11-04T06:00:00Z,26.5255,-82.0032,2.749,4.98,1111122 
SCCF RECON,ioos:station:SCCF:13:1,2009-11-04T07:00:00Z,26.5255,-82.0032,2.715,4.8,1111122 
SCCF RECON,ioos:station:SCCF:13:1,2009-11-04T08:00:00Z,26.5255,-82.0032,2.6,4.7,1111122 
SCCF RECON,ioos:station:SCCF:13:1,2009-11-04T09:00:00Z,26.5255,-82.0032,2.47,4.78,1111122 
SCCF RECON,ioos:station:SCCF:13:1,2009-11-04T10:00:00Z,26.5255,-82.0032,2.37,5.17,1111122 
SCCF RECON,ioos:station:SCCF:13:1,2009-11-04T11:00:00Z,26.5255,-82.0032,2.271,5.1,1111122 
SCCF RECON,ioos:station:SCCF:13:1,2009-11-04T12:00:00Z,26.5255,-82.0032,2.18,5.3,1111122 
SCCF RECON,ioos:station:SCCF:13:1,2009-11-04T13:00:00Z,26.5255,-82.0032,2.09,5.3,1111122 
SCCF RECON,ioos:station:SCCF:13:1,2009-11-04T14:00:00Z,26.5255,-82.0032,2.04,5.48,1111122 
SCCF RECON,ioos:station:SCCF:13:1,2009-11-04T15:00:00Z,26.5255,-82.0032,2.102,5.68,1111122 
SCCF RECON,ioos:station:SCCF:13:1,2009-11-04T16:00:00Z,26.5255,-82.0032,2.256,5.84,1111122 
SCCF RECON,ioos:station:SCCF:13:1,2009-11-04T17:00:00Z,26.5255,-82.0032,2.348,5.53,1111122 
SCCF RECON,ioos:station:SCCF:13:1,2009-11-04T18:00:00Z,26.5255,-82.0032,2.422,5.85,1111122 
SCCF RECON,ioos:station:SCCF:13:1,2009-11-04T19:00:00Z,26.5255,-82.0032,2.48,5.43,1111122 
SCCF RECON,ioos:station:SCCF:13:1,2009-11-04T20:00:00Z,26.5255,-82.0032,2.51,5.61,1111122 
SCCF RECON,ioos:station:SCCF:13:1,2009-11-04T21:00:00Z,26.5255,-82.0032,2.519,5.54,1111122 
SCCF RECON,ioos:station:SCCF:13:1,2009-11-04T22:00:00Z,26.5255,-82.0032,2.52,5.5,1111122 
SCCF RECON,ioos:station:SCCF:13:1,2009-11-04T23:00:00Z,26.5255,-82.0032,2.51,5.43,1111122 
SCCF RECON,ioos:station:SCCF:13:1,2009-11-05T00:00:00Z,26.5255,-82.0032,2.482,5.32,1111122 
SCCF RECON,ioos:station:SCCF:13:1,2009-11-05T01:00:00Z,26.5255,-82.0032,2.47,5.2,1111122 
SCCF RECON,ioos:station:SCCF:13:1,2009-11-05T02:00:00Z,26.5255,-82.0032,2.51,5.56,1111122 
SCCF RECON,ioos:station:SCCF:13:1,2009-11-05T03:00:00Z,26.5255,-82.0032,2.6,5.21,1111122 
SCCF RECON,ioos:station:SCCF:13:1,2009-11-05T04:00:00Z,26.5255,-82.0032,2.689,5.2,1111122 
SCCF RECON,ioos:station:SCCF:13:1,2009-11-05T05:00:00Z,26.5255,-82.0032,2.73,5.19,1111122 
SCCF RECON,ioos:station:SCCF:13:1,2009-11-05T06:00:00Z,26.5255,-82.0032,2.76,5.08,1111122 
SCCF RECON,ioos:station:SCCF:13:1,2009-11-05T07:00:00Z,26.5255,-82.0032,2.75,4.97,1111122 
SCCF RECON,ioos:station:SCCF:13:1,2009-11-05T08:00:00Z,26.5255,-82.0032,2.71,4.9,1111122 
SCCF RECON,ioos:station:SCCF:13:1,2009-11-05T09:00:00Z,26.5255,-82.0032,2.595,4.86,1111122 
SCCF RECON,ioos:station:SCCF:13:1,2009-11-05T10:00:00Z,26.5255,-82.0032,2.48,4.93,1111122 
SCCF RECON,ioos:station:SCCF:13:1,2009-11-05T11:00:00Z,26.5255,-82.0032,2.387,5.16,1111122 
SCCF RECON,ioos:station:SCCF:13:1,2009-11-05T12:00:00Z,26.5255,-82.0032,2.281,5.23,1111122 
SCCF RECON,ioos:station:SCCF:13:1,2009-11-05T13:00:00Z,26.5255,-82.0032,2.181,5.51,1111122 
SCCF RECON,ioos:station:SCCF:13:1,2009-11-05T14:00:00Z,26.5255,-82.0032,2.1,5.52,1111122 
SCCF RECON,ioos:station:SCCF:13:1,2009-11-05T15:00:00Z,26.5255,-82.0032,2.057,5.72,1111122 
SCCF RECON,ioos:station:SCCF:13:1,2009-11-05T16:00:00Z,26.5255,-82.0032,2.106,5.93,1111122 
SCCF RECON,ioos:station:SCCF:13:1,2009-11-05T17:00:00Z,26.5255,-82.0032,2.2,6.08,1111122 
SCCF RECON,ioos:station:SCCF:13:1,2009-11-05T18:00:00Z,26.5255,-82.0032,2.29,6.17,1111122 
SCCF RECON,ioos:station:SCCF:13:1,2009-11-05T19:00:00Z,26.5255,-82.0032,2.36,6.41,1111122 
SCCF RECON,ioos:station:SCCF:13:1,2009-11-05T20:00:00Z,26.5255,-82.0032,2.413,5.85,1111122 
SCCF RECON,ioos:station:SCCF:13:1,2009-11-05T21:00:00Z,26.5255,-82.0032,2.441,5.65,1111122 
SCCF RECON,ioos:station:SCCF:13:1,2009-11-05T22:00:00Z,26.5255,-82.0032,2.441,6.02,1111122 
SCCF RECON,ioos:station:SCCF:13:1,2009-11-05T23:00:00Z,26.5255,-82.0032,2.41,5.85,1111122 
SCCF RECON,ioos:station:SCCF:13:1,2009-11-06T00:00:00Z,26.5255,-82.0032,2.382,5.5,1111122 
SCCF RECON,ioos:station:SCCF:13:1,2009-11-06T01:00:00Z,26.5255,-82.0032,2.4,5.4,1111122 
SCCF RECON,ioos:station:SCCF:13:1,2009-11-06T02:00:00Z,26.5255,-82.0032,2.409,5.46,1111122 
SCCF RECON,ioos:station:SCCF:13:1,2009-11-06T03:00:00Z,26.5255,-82.0032,2.41,5.8,1111122 
SCCF RECON,ioos:station:SCCF:13:1,2009-11-06T04:00:00Z,26.5255,-82.0032,2.48,5.49,1111122 
SCCF RECON,ioos:station:SCCF:13:1,2009-11-06T05:00:00Z,26.5255,-82.0032,2.54,5.48,1111122 
SCCF RECON,ioos:station:SCCF:13:1,2009-11-06T06:00:00Z,26.5255,-82.0032,2.56,5.5,1111122 
SCCF RECON,ioos:station:SCCF:13:1,2009-11-06T07:00:00Z,26.5255,-82.0032,2.576,5.43,1111122 
SCCF RECON,ioos:station:SCCF:13:1,2009-11-06T08:00:00Z,26.5255,-82.0032,2.561,5.31,1111122 
SCCF RECON,ioos:station:SCCF:13:1,2009-11-06T09:00:00Z,26.5255,-82.0032,2.52,5.2,1111122 
SCCF RECON,ioos:station:SCCF:13:1,2009-11-06T10:00:00Z,26.5255,-82.0032,2.43,5.23,1111122 
SCCF RECON,ioos:station:SCCF:13:1,2009-11-06T11:00:00Z,26.5255,-82.0032,2.337,5.28,1111122 
SCCF RECON,ioos:station:SCCF:13:1,2009-11-06T12:00:00Z,26.5255,-82.0032,2.245,5.7,1111122 
SCCF RECON,ioos:station:SCCF:13:1,2009-11-06T13:00:00Z,26.5255,-82.0032,2.149,5.58,1111122 
SCCF RECON,ioos:station:SCCF:13:1,2009-11-06T14:00:00Z,26.5255,-82.0032,2.05,5.81,1111122 
SCCF RECON,ioos:station:SCCF:13:1,2009-11-06T15:00:00Z,26.5255,-82.0032,1.98,6.11,1111122 
SCCF RECON,ioos:station:SCCF:13:1,2009-11-06T16:00:00Z,26.5255,-82.0032,1.95,6.31,1111122 
SCCF RECON,ioos:station:SCCF:13:1,2009-11-06T17:00:00Z,26.5255,-82.0032,2.02,6.47,1111122 
SCCF RECON,ioos:station:SCCF:13:1,2009-11-06T18:00:00Z,26.5255,-82.0032,2.14,6.58,1111122 
SCCF RECON,ioos:station:SCCF:13:1,2009-11-06T19:00:00Z,26.5255,-82.0032,2.222,6.31,1111122 
SCCF RECON,ioos:station:SCCF:13:1,2009-11-06T20:00:00Z,26.5255,-82.0032,2.279,6.72,1111122 
SCCF RECON,ioos:station:SCCF:13:1,2009-11-06T21:00:00Z,26.5255,-82.0032,2.324,6.15,1111122 
SCCF RECON,ioos:station:SCCF:13:1,2009-11-06T22:00:00Z,26.5255,-82.0032,2.359,6.39,1111122 
SCCF RECON,ioos:station:SCCF:13:1,2009-11-06T23:00:00Z,26.5255,-82.0032,2.369,6.44,1111122 
SCCF RECON,ioos:station:SCCF:13:1,2009-11-07T00:00:00Z,26.5255,-82.0032,2.357,6.06,1111122 
SCCF RECON,ioos:station:SCCF:13:1,2009-11-07T01:00:00Z,26.5255,-82.0032,2.34,5.97,1111122 
SCCF RECON,ioos:station:SCCF:13:1,2009-11-07T02:00:00Z,26.5255,-82.0032,2.33,5.87,1111122 
SCCF RECON,ioos:station:SCCF:13:1,2009-11-07T03:00:00Z,26.5255,-82.0032,2.361,5.92,1111122 
SCCF RECON,ioos:station:SCCF:13:1,2009-11-07T04:00:00Z,26.5255,-82.0032,2.43,5.92,1111122 
SCCF RECON,ioos:station:SCCF:13:1,2009-11-07T05:00:00Z,26.5255,-82.0032,2.49,5.91,1111122 
SCCF RECON,ioos:station:SCCF:13:1,2009-11-07T06:00:00Z,26.5255,-82.0032,2.55,5.82,1111122 
SCCF RECON,ioos:station:SCCF:13:1,2009-11-07T07:00:00Z,26.5255,-82.0032,2.58,5.55,1111122 
SCCF RECON,ioos:station:SCCF:13:1,2009-11-07T08:00:00Z,26.5255,-82.0032,2.63,5.47,1111122 
SCCF RECON,ioos:station:SCCF:13:1,2009-11-07T09:00:00Z,26.5255,-82.0032,2.65,5.43,1111122 
SCCF RECON,ioos:station:SCCF:13:1,2009-11-07T10:00:00Z,26.5255,-82.0032,2.63,5.45,1111122 
SCCF RECON,ioos:station:SCCF:13:1,2009-11-07T11:00:00Z,26.5255,-82.0032,2.542,5.37,1111122 
SCCF RECON,ioos:station:SCCF:13:1,2009-11-07T12:00:00Z,26.5255,-82.0032,2.43,5.37,1111122 
SCCF RECON,ioos:station:SCCF:13:1,2009-11-07T13:00:00Z,26.5255,-82.0032,2.339,5.79,1111122 
SCCF RECON,ioos:station:SCCF:13:1,2009-11-07T14:00:00Z,26.5255,-82.0032,2.25,5.7,1111122 
SCCF RECON,ioos:station:SCCF:13:1,2009-11-07T15:00:00Z,26.5255,-82.0032,2.16,6.05,1111122 
SCCF RECON,ioos:station:SCCF:13:1,2009-11-07T16:00:00Z,26.5255,-82.0032,2.09,6.29,1111122 
SCCF RECON,ioos:station:SCCF:13:1,2009-11-07T17:00:00Z,26.5255,-82.0032,2.08,6.42,1111122 
SCCF RECON,ioos:station:SCCF:13:1,2009-11-07T18:00:00Z,26.5255,-82.0032,2.17,6.5,1111122 
SCCF RECON,ioos:station:SCCF:13:1,2009-11-07T19:00:00Z,26.5255,-82.0032,2.269,6.56,1111122 
SCCF RECON,ioos:station:SCCF:13:1,2009-11-07T20:00:00Z,26.5255,-82.0032,2.344,6.48,1111122 
SCCF RECON,ioos:station:SCCF:13:1,2009-11-07T21:00:00Z,26.5255,-82.0032,2.386,6.78,1111122 
SCCF RECON,ioos:station:SCCF:13:1,2009-11-07T22:00:00Z,26.5255,-82.0032,2.425,6.48,1111122 
SCCF RECON,ioos:station:SCCF:13:1,2009-11-07T23:00:00Z,26.5255,-82.0032,2.45,6.5,1111122 
SCCF RECON,ioos:station:SCCF:13:1,2009-11-08T00:00:00Z,26.5255,-82.0032,2.413,6.36,1111122 
SCCF RECON,ioos:station:SCCF:13:1,2009-11-08T01:00:00Z,26.5255,-82.0032,2.38,6.1,1111122 
SCCF RECON,ioos:station:SCCF:13:1,2009-11-08T02:00:00Z,26.5255,-82.0032,2.35,5.83,1111122 
SCCF RECON,ioos:station:SCCF:13:1,2009-11-08T03:00:00Z,26.5255,-82.0032,2.34,5.82,1111122 
SCCF RECON,ioos:station:SCCF:13:1,2009-11-08T04:00:00Z,26.5255,-82.0032,2.35,6.18,1111122 
SCCF RECON,ioos:station:SCCF:13:1,2009-11-08T05:00:00Z,26.5255,-82.0032,2.41,5.91,1111122 
SCCF RECON,ioos:station:SCCF:13:1,2009-11-08T06:00:00Z,26.5255,-82.0032,2.47,5.9,1111122 
SCCF RECON,ioos:station:SCCF:13:1,2009-11-08T07:00:00Z,26.5255,-82.0032,2.56,5.95,1111122 
SCCF RECON,ioos:station:SCCF:13:1,2009-11-08T08:00:00Z,26.5255,-82.0032,2.622,5.84,1111122 
SCCF RECON,ioos:station:SCCF:13:1,2009-11-08T09:00:00Z,26.5255,-82.0032,2.652,5.52,1111122 
SCCF RECON,ioos:station:SCCF:13:1,2009-11-08T10:00:00Z,26.5255,-82.0032,2.66,5.41,1111122 
SCCF RECON,ioos:station:SCCF:13:1,2009-11-08T11:00:00Z,26.5255,-82.0032,2.628,5.46,1111122 
SCCF RECON,ioos:station:SCCF:13:1,2009-11-08T12:00:00Z,26.5255,-82.0032,2.54,5.47,1111122 
SCCF RECON,ioos:station:SCCF:13:1,2009-11-08T13:00:00Z,26.5255,-82.0032,2.45,5.51,1111122 
SCCF RECON,ioos:station:SCCF:13:1,2009-11-08T14:00:00Z,26.5255,-82.0032,2.362,5.89,1111122 
SCCF RECON,ioos:station:SCCF:13:1,2009-11-08T15:00:00Z,26.5255,-82.0032,2.27,6.05,1111122 
SCCF RECON,ioos:station:SCCF:13:1,2009-11-08T16:00:00Z,26.5255,-82.0032,2.19,6.33,1111122 
SCCF RECON,ioos:station:SCCF:13:1,2009-11-08T17:00:00Z,26.5255,-82.0032,2.132,6.46,1111122 
SCCF RECON,ioos:station:SCCF:13:1,2009-11-08T18:00:00Z,26.5255,-82.0032,2.15,6.6,1111122 
SCCF RECON,ioos:station:SCCF:13:1,2009-11-08T19:00:00Z,26.5255,-82.0032,2.25,6.65,1111122 
SCCF RECON,ioos:station:SCCF:13:1,2009-11-08T20:00:00Z,26.5255,-82.0032,2.311,6.56,1111122 
SCCF RECON,ioos:station:SCCF:13:1,2009-11-08T21:00:00Z,26.5255,-82.0032,2.358,6.54,1111122 
SCCF RECON,ioos:station:SCCF:13:1,2009-11-08T22:00:00Z,26.5255,-82.0032,2.419,6.76,1111122 
SCCF RECON,ioos:station:SCCF:13:1,2009-11-08T23:00:00Z,26.5255,-82.0032,2.468,6.39,1111122 
SCCF RECON,ioos:station:SCCF:13:1,2009-11-09T00:00:00Z,26.5255,-82.0032,2.486,6.49,1111122 
SCCF RECON,ioos:station:SCCF:13:1,2009-11-09T01:00:00Z,26.5255,-82.0032,2.503,6.3,1111122 
SCCF RECON,ioos:station:SCCF:13:1,2009-11-09T02:00:00Z,26.5255,-82.0032,2.462,6.23,1111122 
SCCF RECON,ioos:station:SCCF:13:1,2009-11-09T03:00:00Z,26.5255,-82.0032,2.434,6.14,1111122 
SCCF RECON,ioos:station:SCCF:13:1,2009-11-09T04:00:00Z,26.5255,-82.0032,2.434,5.99,1111122 
SCCF RECON,ioos:station:SCCF:13:1,2009-11-09T05:00:00Z,26.5255,-82.0032,2.46,5.9,1111122 
SCCF RECON,ioos:station:SCCF:13:1,2009-11-09T06:00:00Z,26.5255,-82.0032,2.501,5.97,1111122 
SCCF RECON,ioos:station:SCCF:13:1,2009-11-09T07:00:00Z,26.5255,-82.0032,2.551,5.82,1111122 
SCCF RECON,ioos:station:SCCF:13:1,2009-11-09T08:00:00Z,26.5255,-82.0032,2.62,5.85,1111122 
SCCF RECON,ioos:station:SCCF:13:1,2009-11-09T09:00:00Z,26.5255,-82.0032,2.687,5.81,1111122 
SCCF RECON,ioos:station:SCCF:13:1,2009-11-09T10:00:00Z,26.5255,-82.0032,2.75,5.76,1111122 
SCCF RECON,ioos:station:SCCF:13:1,2009-11-09T11:00:00Z,26.5255,-82.0032,2.8,5.81,1111122 
SCCF RECON,ioos:station:SCCF:13:1,2009-11-09T12:00:00Z,26.5255,-82.0032,2.796,5.77,1111122 
SCCF RECON,ioos:station:SCCF:13:1,2009-11-09T13:00:00Z,26.5255,-82.0032,2.73,5.73,1111122 
SCCF RECON,ioos:station:SCCF:13:1,2009-11-09T14:00:00Z,26.5255,-82.0032,2.643,5.72,1111122 
SCCF RECON,ioos:station:SCCF:13:1,2009-11-09T15:00:00Z,26.5255,-82.0032,2.557,5.86,1111122 
SCCF RECON,ioos:station:SCCF:13:1,2009-11-09T16:00:00Z,26.5255,-82.0032,2.468,5.98,1111122 
SCCF RECON,ioos:station:SCCF:13:1,2009-11-09T17:00:00Z,26.5255,-82.0032,2.389,6.02,1111122 
SCCF RECON,ioos:station:SCCF:13:1,2009-11-09T18:00:00Z,26.5255,-82.0032,2.36,6.12,1111122 
SCCF RECON,ioos:station:SCCF:13:1,2009-11-09T19:00:00Z,26.5255,-82.0032,2.41,6.2,1111122 
SCCF RECON,ioos:station:SCCF:13:1,2009-11-09T20:00:00Z,26.5255,-82.0032,2.49,6.09,1111122 
SCCF RECON,ioos:station:SCCF:13:1,2009-11-09T21:00:00Z,26.5255,-82.0032,2.559,6.04,1111122 
SCCF RECON,ioos:station:SCCF:13:1,2009-11-09T22:00:00Z,26.5255,-82.0032,2.62,6.34,1111122 
SCCF RECON,ioos:station:SCCF:13:1,2009-11-09T23:00:00Z,26.5255,-82.0032,2.69,6.02,1111122 
SCCF RECON,ioos:station:SCCF:13:1,2009-11-10T00:00:00Z,26.5255,-82.0032,2.75,6.3,1111122 
SCCF RECON,ioos:station:SCCF:13:1,2009-11-10T01:00:00Z,26.5255,-82.0032,2.789,6.13,1111122 
SCCF RECON,ioos:station:SCCF:13:1,2009-11-10T02:00:00Z,26.5255,-82.0032,2.785,6.0,1111122 
SCCF RECON,ioos:station:SCCF:13:1,2009-11-10T03:00:00Z,26.5255,-82.0032,2.731,5.88,1111122 
SCCF RECON,ioos:station:SCCF:13:1,2009-11-10T04:00:00Z,26.5255,-82.0032,2.68,5.79,1111122 
SCCF RECON,ioos:station:SCCF:13:1,2009-11-10T05:00:00Z,26.5255,-82.0032,2.634,5.68,1111122 
SCCF RECON,ioos:station:SCCF:13:1,2009-11-10T06:00:00Z,26.5255,-82.0032,2.62,5.7,1111122 
SCCF RECON,ioos:station:SCCF:13:1,2009-11-10T07:00:00Z,26.5255,-82.0032,2.57,5.86,1111122 
SCCF RECON,ioos:station:SCCF:13:1,2009-11-10T08:00:00Z,26.5255,-82.0032,2.59,5.83,1111122 
SCCF RECON,ioos:station:SCCF:13:1,2009-11-10T09:00:00Z,26.5255,-82.0032,2.65,5.73,1111122 
SCCF RECON,ioos:station:SCCF:13:1,2009-11-10T10:00:00Z,26.5255,-82.0032,2.71,5.21,1111122 
SCCF RECON,ioos:station:SCCF:13:1,2009-11-10T11:00:00Z,26.5255,-82.0032,2.74,5.32,1111122 
SCCF RECON,ioos:station:SCCF:13:1,2009-11-10T12:00:00Z,26.5255,-82.0032,2.77,5.38,1111122 
SCCF RECON,ioos:station:SCCF:13:1,2009-11-10T13:00:00Z,26.5255,-82.0032,2.811,5.36,1111122 
SCCF RECON,ioos:station:SCCF:13:1,2009-11-10T14:00:00Z,26.5255,-82.0032,2.82,5.33,1111122 
SCCF RECON,ioos:station:SCCF:13:1,2009-11-10T15:00:00Z,26.5255,-82.0032,2.741,5.41,1111122 
SCCF RECON,ioos:station:SCCF:13:1,2009-11-10T16:00:00Z,26.5255,-82.0032,2.67,5.51,1111122 
SCCF RECON,ioos:station:SCCF:13:1,2009-11-10T17:00:00Z,26.5255,-82.0032,2.588,5.67,1111122 
SCCF RECON,ioos:station:SCCF:13:1,2009-11-10T18:00:00Z,26.5255,-82.0032,2.51,5.97,1111122 
SCCF RECON,ioos:station:SCCF:13:1,2009-11-10T19:00:00Z,26.5255,-82.0032,2.46,6.02,1111122 
SCCF RECON,ioos:station:SCCF:13:1,2009-11-10T20:00:00Z,26.5255,-82.0032,2.47,6.02,1111122 
SCCF RECON,ioos:station:SCCF:13:1,2009-11-10T21:00:00Z,26.5255,-82.0032,2.561,5.8,1111122 
SCCF RECON,ioos:station:SCCF:13:1,2009-11-10T22:00:00Z,26.5255,-82.0032,2.63,5.8,1111122 
SCCF RECON,ioos:station:SCCF:13:1,2009-11-10T23:00:00Z,26.5255,-82.0032,2.69,5.82,1111122 
SCCF RECON,ioos:station:SCCF:13:1,2009-11-11T00:00:00Z,26.5255,-82.0032,2.75,5.96,1111122 
SCCF RECON,ioos:station:SCCF:13:1,2009-11-11T01:00:00Z,26.5255,-82.0032,2.81,5.79,1111122 
SCCF RECON,ioos:station:SCCF:13:1,2009-11-11T02:00:00Z,26.5255,-82.0032,2.82,5.6,1111122 
SCCF RECON,ioos:station:SCCF:13:1,2009-11-11T03:00:00Z,26.5255,-82.0032,2.77,5.53,1111122 
SCCF RECON,ioos:station:SCCF:13:1,2009-11-11T04:00:00Z,26.5255,-82.0032,2.701,5.57,1111122 
SCCF RECON,ioos:station:SCCF:13:1,2009-11-11T05:00:00Z,26.5255,-82.0032,2.63,5.35,1111122 
SCCF RECON,ioos:station:SCCF:13:1,2009-11-11T06:00:00Z,26.5255,-82.0032,2.573,5.32,1111122 
SCCF RECON,ioos:station:SCCF:13:1,2009-11-11T07:00:00Z,26.5255,-82.0032,2.51,5.49,1111122 
SCCF RECON,ioos:station:SCCF:13:1,2009-11-11T08:00:00Z,26.5255,-82.0032,2.47,5.5,1111122 
SCCF RECON,ioos:station:SCCF:13:1,2009-11-11T09:00:00Z,26.5255,-82.0032,2.49,5.53,1111122 
SCCF RECON,ioos:station:SCCF:13:1,2009-11-11T10:00:00Z,26.5255,-82.0032,2.61,5.47,1111122 
SCCF RECON,ioos:station:SCCF:13:1,2009-11-11T11:00:00Z,26.5255,-82.0032,2.67,5.1,1111122 
SCCF RECON,ioos:station:SCCF:13:1,2009-11-11T12:00:00Z,26.5255,-82.0032,2.66,5.21,1111122 
SCCF RECON,ioos:station:SCCF:13:1,2009-11-11T13:00:00Z,26.5255,-82.0032,2.67,5.14,1111122 
SCCF RECON,ioos:station:SCCF:13:1,2009-11-11T14:00:00Z,26.5255,-82.0032,2.703,5.14,1111122 
SCCF RECON,ioos:station:SCCF:13:1,2009-11-11T15:00:00Z,26.5255,-82.0032,2.71,5.17,1111122 
SCCF RECON,ioos:station:SCCF:13:1,2009-11-11T16:00:00Z,26.5255,-82.0032,2.66,5.16,1111122 
SCCF RECON,ioos:station:SCCF:13:1,2009-11-11T17:00:00Z,26.5255,-82.0032,2.57,5.25,1111122 
SCCF RECON,ioos:station:SCCF:13:1,2009-11-11T18:00:00Z,26.5255,-82.0032,2.48,5.39,1111122 
SCCF RECON,ioos:station:SCCF:13:1,2009-11-11T19:00:00Z,26.5255,-82.0032,2.4,5.64,1111122 
SCCF RECON,ioos:station:SCCF:13:1,2009-11-11T20:00:00Z,26.5255,-82.0032,2.351,5.71,1111122 